Regional Weather Roundup
Issued by NWS

Home | Current Version | Previous Version | Text Only | Print | Product List | Glossary On
Versions: 1 2 3 4 5 6 7 8 9 10 11 12 13 14 15 16 17 18 19 20 21 22 23 24 25 26 27 28 29 30 31 32 33 34 35 36 37 38 39 40 41 42 43 44 45 46 47 48 49 50
000
ASUS43 KTOP 280759
RWRKS

WEATHER ROUNDUP FOR KANSAS
NATIONAL WEATHER SERVICE GOODLAND KS
200 AM CST SAT FEB 28 2015

NOTE:  "FAIR" INDICATES FEW OR NO CLOUDS BELOW 12,000 FEET WITH NO
SIGNIFICANT WEATHER AND/OR OBSTRUCTIONS TO VISIBILITY.

KSZ001>006-013>018-027>032-041>047-280900-
NORTHWEST KANSAS

CITY           SKY/WX    TMP DP  RH WIND       PRES   REMARKS
GOODLAND       FLURRIES  11   7  84 S14       30.11F WCI  -5
HAYS           CLOUDY    12   0  57 SE9       30.34F
HILL CITY      CLOUDY    14   7  73 S8        30.32F
RUSSELL        PTCLDY     9   7  92 SE8       30.36F
$$

KSZ061>065-074>080-084>089-280900-
SOUTHWEST KANSAS

CITY           SKY/WX    TMP DP  RH WIND       PRES   REMARKS
DODGE CITY     LGT SNOW  12   7  80 S15       30.28F WCI  -4
ELKHART          N/A     13   6  74 SE13        N/A  WCI  -2
GARDEN CITY    LGT SNOW  10   7  87 SE15      30.23S FOG     WCI  -7
GREAT BEND     CLOUDY    12   7  79 S10       30.37F WCI  -1
LIBERAL        CLOUDY    14   9  79 SE13      30.23F WCI   0
$$

KSZ066>073-081>083-090>101-280900-
SOUTHEAST KANSAS

CITY           SKY/WX    TMP DP  RH WIND       PRES   REMARKS
CHANUTE        CLOUDY    17   9  70 E5        30.50F
COFFEYVILLE    CLOUDY    19  15  84 E5        30.51S
HUTCHINSON     CLOUDY    16  10  77 SE10      30.43S WCI   4
MEDICINE LODGE   N/A     14  11  87 SE9       30.40F
NEWTON         CLOUDY    14   7  73 SE8       30.45S
PARSONS        PTCLDY    18  12  77 CALM      30.51F
WICHITA INTL   CLOUDY    16  10  77 SE6       30.45S
WICHITA JABRA  CLOUDY    15  11  83 SE5       30.45S
WINFIELD       CLOUDY    16  11  80 E8        30.47S
$$

KSZ007>012-019>026-033>040-048>060-102>105-280900-
NORTHEAST KANSAS

CITY           SKY/WX    TMP DP  RH WIND       PRES   REMARKS
CONCORDIA      PTCLDY    11   8  88 S7        30.44S
EMPORIA        CLOUDY    16  10  77 SE7       30.48R
LAWRENCE       PTCLDY    13   5  70 E6        30.53F
MANHATTAN      CLEAR     12   8  84 S3        30.50S
OLATHE IND     CLOUDY    16   7  67 E6        30.51F
OLATHE EXE     CLOUDY    17   6  62 E6        30.50F
SALINA         CLOUDY    10   5  80 S5        30.47S
TOPEKA BILLARD CLEAR     14   5  67 E3        30.53F
TOPEKA FORBES  MOCLDY    14   5  67 CALM      30.50F
$$



USA.gov is the U.S. government's official web portal to all federal, state and local government web resources and services.